Weather History for Montreal, QC

Change the Weather History Date:

Saturday, December 8, 2012

  Actual Average Record
Temperature  
Mean Temperature 36 °F -  
Max Temperature 39 °F 31 °F 39 °F (2012)
Min Temperature 33 °F 20 °F -5 °F (2000)
Degree Days  
Heating Degree Days 29    
Moisture  
Dew Point 33 °F    
Average Humidity 90    
Maximum Humidity 100    
Minimum Humidity 70    
Precipitation  
Precipitation 0.08 in - - ()
Sea Level Pressure  
Sea Level Pressure 29.92 in    
Wind  
Wind Speed 5 mph ()    
Max Wind Speed 14 mph    
Max Gust Speed -    
Visibility 5.9 miles    
Events Rain , Snow    
Averages and records for this station are not official NWS values.
T = Trace of Precipitation, MM = Missing Value Source: Averaged Metar Reports

Daily Weather History Graph

Daily Weather History Graph

Search for Another Location

Airport:

Trip Planner

Search our weather history database for the weather conditions in past years. The results will help you decide how hot, cold, wet, or windy it might be!

Date:

Astronomy

Dec. 08, 2012 Rise Set
Actual Time 7:22 AM EST 4:11 PM EST
Civil Twilight 6:48 AM EST 4:45 PM EST
Nautical Twilight 6:11 AM EST 5:22 PM EST
Astronomical Twilight 5:35 AM EST 5:58 PM EST
Moon 1:31 AM EST (12/8) 12:51 PM EST (12/8)
Length of Visible Light 9h 56m
Length of Day
8h 49m
Waning Crescent, 28% of the Moon is Illuminated
Dec 8
Waning Crescent
Dec 13
New
Dec 20
First Quarter
Dec 28
Full
Jan 4
Last Quarter

Hourly Weather History & Observations

Time (EST) Temp. Windchill Dew Point Humidity Pressure Visibility Wind Dir Wind Speed Gust Speed Precip Events Conditions
12:00 AM 35.6 °F - 30.2 °F 81% 30.02 in 15.0 mi SE 2.3 mph - N/A Snow Light Snow
1:00 AM 36 °F - 30 °F 70% 30.01 in 15 mi SE 2.3 mph - - Snow Light Snow
1:00 AM 35.6 °F 32.8 °F 30.2 °F 81% 30.01 in 15.0 mi SE 3.5 mph - N/A   Overcast
2:00 AM 35.6 °F 31.7 °F 28.4 °F 75% 30.01 in 15.0 mi ESE 4.6 mph - N/A   Overcast
3:00 AM 35.6 °F 32.8 °F 30.2 °F 81% 30.01 in 15.0 mi SSE 3.5 mph - N/A   Overcast
4:00 AM 37.4 °F - 30.2 °F 75% 30.00 in 15.0 mi Calm Calm - N/A   Overcast
5:00 AM 37.4 °F 32.8 °F 30.2 °F 75% 29.98 in 15.0 mi East 5.8 mph - N/A   Overcast
6:00 AM 35.6 °F 30.7 °F 32.0 °F 87% 29.98 in 15.0 mi East 5.8 mph - N/A   Overcast
7:00 AM 36 °F - 34 °F 88% 29.99 in 5 mi ESE 3.5 mph - -   Mist
7:00 AM 35.6 °F 32.8 °F 33.8 °F 93% 29.99 in 5.0 mi ESE 3.5 mph - N/A   Overcast
7:17 AM 37.4 °F 34.9 °F - N/A% - 5.0 mi East 3.5 mph - N/A Rain Light Rain
8:00 AM 37.4 °F 33.8 °F 35.6 °F 93% 29.98 in 4.0 mi East 4.6 mph - N/A Rain Light Rain
8:45 AM 37.4 °F 32.8 °F - N/A% - 3.0 mi East 5.8 mph - N/A Rain Light Rain
9:00 AM 37.4 °F 32.1 °F 35.6 °F 93% 29.96 in 3.0 mi East 6.9 mph - N/A Rain Light Rain
10:00 AM 37.4 °F 32.1 °F 35.6 °F 93% 29.95 in 5.0 mi NE 6.9 mph - N/A Rain Light Rain
10:40 AM 39.2 °F 33.6 °F - N/A% - 5.0 mi NE 8.1 mph - N/A Rain Light Rain
11:00 AM 35.6 °F 28.0 °F 35.6 °F 100% 29.91 in 5.0 mi NNE 10.4 mph - N/A Rain Light Rain
11:10 AM 35.6 °F 28.6 °F - N/A% - 3.0 mi NNE 9.2 mph - N/A Rain Light Rain
11:29 AM 39.2 °F 33.6 °F - N/A% - 2.5 mi North 8.1 mph - N/A Rain Light Rain
11:51 AM 35.6 °F 28.6 °F - N/A% - 2.5 mi North 9.2 mph - N/A Rain Light Rain
12:00 PM 35.6 °F 28.6 °F 35.6 °F 100% 29.88 in 3.0 mi North 9.2 mph - N/A Rain Light Rain
12:16 PM 35.6 °F 28.0 °F - N/A% - 3.0 mi NNE 10.4 mph - N/A Rain Light Rain
12:29 PM 35.6 °F 28.0 °F - N/A% - 3.0 mi NNE 10.4 mph - N/A Rain Light Rain
1:00 PM 35 °F - 34 °F 96% 29.84 in 2 mi NNE 10.4 mph - - Rain Light Rain
1:00 PM 35.6 °F 28.0 °F 33.8 °F 93% 29.84 in 2.2 mi NNE 10.4 mph - N/A Rain Light Rain
1:49 PM 35.6 °F 28.0 °F - N/A% - 4.0 mi NNE 10.4 mph - N/A Rain Light Rain
2:00 PM 35.6 °F 28.6 °F 33.8 °F 93% 29.82 in 4.0 mi NNE 9.2 mph - N/A Rain Light Rain
2:13 PM 35.6 °F 27.1 °F - N/A% - 4.0 mi NE 12.7 mph - N/A Rain Light Rain
3:00 PM 35.6 °F 28.0 °F 33.8 °F 93% 29.81 in 3.0 mi NNE 10.4 mph - N/A Rain Light Rain
3:33 PM 35.6 °F 28.6 °F - N/A% - 2.0 mi NNE 9.2 mph - N/A Rain Light Rain
4:00 PM 35.6 °F 28.0 °F 33.8 °F 93% 29.81 in 3.0 mi NNE 10.4 mph - N/A Rain Light Rain
5:00 PM 35.6 °F 30.7 °F 33.8 °F 93% 29.80 in 5.0 mi NE 5.8 mph - N/A Rain Light Rain
6:00 PM 33.8 °F 28.6 °F 33.8 °F 100% 29.83 in 4.0 mi NNW 5.8 mph - N/A Rain Light Rain
7:00 PM 34 °F - 32 °F 91% 29.85 in 4 mi NNW 4.6 mph - - Rain Light Rain
7:00 PM 33.8 °F 28.6 °F 32.0 °F 93% 29.85 in 4.0 mi NNW 5.8 mph - N/A Rain Light Rain
8:00 PM 33.8 °F 28.6 °F 32.0 °F 93% 29.86 in 4.0 mi WNW 5.8 mph - N/A Rain Light Rain
9:00 PM 33.8 °F 28.6 °F 32.0 °F 93% 29.88 in 4.0 mi West 5.8 mph - N/A Rain , Snow Light Rain
9:34 PM 33.8 °F 28.6 °F - N/A% - 4.0 mi West 5.8 mph - N/A Rain , Snow Light Rain
10:00 PM 33.8 °F 27.0 °F 33.8 °F 100% 29.91 in 4.0 mi SW 8.1 mph - N/A   Overcast
10:46 PM 33.8 °F 26.4 °F - N/A% - 4.0 mi SW 9.2 mph - N/A   Light Drizzle
11:00 PM 33.8 °F 25.8 °F 33.8 °F 100% 29.95 in 5.0 mi WSW 10.4 mph - N/A   Light Drizzle
11:32 PM 33.8 °F 24.3 °F - N/A% - 5.0 mi SW 13.8 mph - N/A   Overcast